This is the latest recevied weather packets stored in our database for station/object Dunnningn. If no packets are shown the sender has not sent any weather packets the latest 10 day(s).
| Time | Temp. | Humidity | Pressure | Rain* | Wind** | Luminosity | Snow |
|---|---|---|---|---|---|---|---|
| 1788010330 | 23.89° C | 47% | 1015.7 hPa | 0 mm | - | - | - |
| 1788008530 | 24.44° C | 48% | 1015.6 hPa | 0 mm | - | - | - |
| 1788006730 | 24.44° C | 47% | 1015.9 hPa | 0 mm | - | - | - |
| 1788004930 | 24.44° C | 45% | 1016.1 hPa | 0 mm | - | - | - |
| 1788003130 | 23.33° C | 47% | 1016.3 hPa | 0 mm | - | - | - |
| 1788001329 | 22.22° C | 50% | 1016.4 hPa | 0 mm | - | - | - |
| 1787999530 | 22.22° C | 50% | 1016.6 hPa | 0 mm | - | - | - |
| 1787997730 | 21.11° C | 54% | 1016.8 hPa | 0 mm | - | - | - |
| 1787995930 | 20.56° C | 56% | 1017 hPa | 0 mm | - | - | - |
| 1787994130 | 21.11° C | 57% | 1017 hPa | 0 mm | - | - | - |
| 1787992330 | 20° C | 66% | 1017.2 hPa | 0 mm | - | - | - |
| 1787990530 | 18.89° C | 69% | 1017.1 hPa | 0 mm | - | - | - |
| 1787988730 | 17.78° C | 70% | 1017.2 hPa | 0 mm | - | - | - |
| 1787986930 | 14.44° C | 81% | 1017.1 hPa | 0 mm | - | - | - |
| 1787985130 | 13.33° C | 88% | 1017.2 hPa | 0 mm | - | - | - |
| 1787983330 | 12.22° C | 89% | 1017.4 hPa | 0 mm | - | - | - |
| 1787981530 | 11.67° C | 89% | 1017.2 hPa | 0 mm | - | - | - |
| 1787979730 | 11.11° C | 88% | 1016.9 hPa | 0 mm | - | - | - |
| 1787977930 | 11.67° C | 87% | 1016.7 hPa | 0 mm | - | - | - |
| 1787976129 | 11.67° C | 86% | 1016.7 hPa | 0 mm | - | - | - |
| 1787974329 | 12.22° C | 85% | 1016.9 hPa | 0 mm | - | - | - |
| 1787972529 | 12.78° C | 84% | 1016.8 hPa | 0 mm | - | - | - |
| 1787970729 | 12.78° C | 83% | 1016.8 hPa | 0 mm | - | - | - |
| 1787968930 | 13.33° C | 82% | 1016.6 hPa | 0 mm | - | - | - |
| 1787967131 | 13.89° C | 82% | 1016.4 hPa | 0 mm | - | - | - |
* Rain since midnight (hover to see other rain measurements)
** Current wind speed in m/s (hover to see current wind gust speed)